SCP
0 0 0 0 0 0 0 0 0 0 0 0 0 0 0 -0 -0 -0 -0 0 0 -0 -0 -0 -0 0 0 0 0 0 0 0 0 0 0 0 0 0 0 0 0 0 0 0
0 0 0 0 0 0 0 0 0 0 0 0 0 0 0 -0 0 -0 -0 0 -0 -0 -0 -0 0 0 -0 -0 0 0 0 -0 0 0 0 0 0 0 0 0 0 0 0 0
0 0 0 0 0 0 0 0 0 0 0 0 0 0 0 0 0 0 -0 -0 -0 -0 0 -0 0 -0 -0 0 0 -0 0 0 0 0 0 0 0 0 0 0 0 0 0 0
0 0 0 0 -0 -0 0 0 0 0 0 0 0 0 0 0 -0 -0 -0 -0 -0 -0 0 -0 0 -0 0 -0 -0 -0 0 0 0 -0 0 0 0 0 0 0 0 0 0 0
0 0 0 0 -0 -0 0 0 0 0 0 0 0 0 0 0 0 0 -0 -0 -0 -0 -0 -0 -0 -0 -0 -0 -0 0 0 0 0 -0 -0 0 0 0 0 0 0 -0 0 0
0 0 0 0 0 0 0 0 0 0 0 0 0 0 0 0 0 0 -0 0 -0 -0 0 0 -0 0 0 -0 -0 0 0 -0 -0 -0 -0 0 0 0 0 0 0 -0 0 0
0 0 0 0 0 0 0 0 0 0 0 0 0 0 0 0 -0 -0 0 -0 -0 -0 0 -0 -0 -0 -0 -0 -0 -0 0 0 0 -0 0 0 0 0 0 -0 0 0 0 0
0 0 0 0 0 0 0 0 0 0 0 0 0 0 0 0 -0 0 0 -0 0 0 -0 0 -0 -0 0 -0 -0 -0 -0 -0 0 0 0 0 1 0 0 0 0 0 0 0
0 0 0 0 0 0 0 0 0 0 0 0 -0 0 0 0 0 0 0 -0 0 -0 -0 0 -0 0 0 -0 0 -0 -0 -0 -0 0 0 0 0 0 1 0 0 0 0 0
0 0 0 0 0 0 0 0 0 0 0 0 0 0 0 0 0 0 -0 -0 -0 -0 0 0 -0 0 0 0 -0 0 -0 -0 -0 -0 0 0 0 0 0 1 0 0 0 0
0 0 0 0 0 0 0 0 0 0 0 0 0 0 0 0 0 0 0 -0 -0 -0 -0 -0 0 -0 0 0 0 0 0 0 -0 -0 -0 0 0 0 0 0 0 0 0 0
0 0 0 0 0 0 0 0 0 0 0 0 0 0 0 0 0 0 0 0 -0 -0 0 0 0 0 0 -0 0 0 0 0 0 0 -0 0 0 0 0 0 0 0 0 0
0 0 0 0 0 0 0 0 0 0 0 0 0 0 0 0 0 0 0 0 0 -0 0 0 0 -0 -0 0 0 0 0 0 0 0 0 0 0 0 0 0 0 0 0 0
0 0 0 0 0 0 0 0 0 0 0 0 0 0 0 0 0 0 0 0 0 0 0 0 0 0 0 -0 0 0 0 0 0 0 0 0 0 0 0 0 0 0 0 0
0 0 -0 0 0 0 0 0 0 0 0 0 0 0 0 0 0 0 0 0 0 0 0 0 0 0 0 0 -0 -0 0 0 0 0 0 0 0 0 0 0 0 0 0 0
0 0 -0 0 0 0 0 0 0 0 0 0 0 -0 0 0 0 0 0 0 0 0 -0 -0 -0 0 0 -0 -0 0 -0 0 0 0 0 0 0 0 0 0 0 0 0 0
0 0 -0 0 0 0 0 0 0 0 0 0 0 0 0 0 0 0 0 0 0 0 0 -0 0 0 0 0 0 0 0 -0 0 0 0 0 0 0 0 0 0 0 0 0
0 0 0 -0 0 0 0 0 0 0 0 0 0 0 0 0 0 0 0 0 0 0 0 0 0 -0 -0 -0 0 0 -0 -0 -0 0 0 0 0 0 0 0 0 0 0 0
0 0 0 0 0 0 0 0 0 0 0 0 0 0 0 0 0 0 0 0 0 0 0 0 -0 -0 0 0 0 0 0 -0 -0 0 0 0 0 0 0 0 0 0 0 0
0 0 0 0 0 0 0 0 0 0 0 0 0 0 0 0 0 0 0 0 0 0 0 0 0 -0 0 0 0 -0 0 0 -0 -0 0 0 -0 0 0 0 0 0 0 0
0 0 0 0 0 0 0 0 0 0 0 0 0 0 0 0 0 0 0 0 0 0 0 0 0 0 0 0 0 -0 -0 -0 0 0 0 -0 -0 -0 -0 0 0 0 0 0
0 0 0 0 0 0 0 0 0 0 0 0 0 0 0 0 0 -0 -0 0 0 0 0 0 0 0 0 0 0 0 -0 -0 0 0 0 -0 -0 0 0 0 0 0 0 0
0 0 0 0 0 0 0 0 0 0 0 0 0 0 0 0 0 0 0 0 0 -0 0 0 0 0 0 0 0 0 -0 0 0 0 0 -0 -0 -0 -0 0 0 0 0 0
0 0 0 0 0 0 0 0 0 0 0 0 0 0 0 0 0 0 0 0 0 0 0 0 0 0 0 0 0 0 0 -0 0 0 0 0 0 -0 0 0 0 0 0 0
0 0 0 0 0 0 0 0 0 0 0 0 0 0 0 0 0 0 0 0 0 0 0 0 0 -0 0 0 0 0 0 0 0 0 0 0 0 0 0 0 0 0 0 0
0 0 0 0 0 0 0 0 0 0 0 0 0 0 0 0 0 0 0 0 0 0 0 -0 0 0 0 0 0 0 0 0 0 0 0 0 0 0 0 0 0 -0 0 0
0 0 0 0 0 0 0 -0 -0 0 0 0 0 0 0 0 0 0 0 0 0 0 0 0 0 0 0 0 0 0 0 0 0 -0 0 0 0 0 0 0 0 -0 0 -0
Wind_Speed_500mb
55 58 58 55 48 53 33 17 7 11 7 9 11 18 41 53 22 34 34 15 23 17 33 39 36 19 21 27 30 21 22 10 28 50 48 58 58 50 48 31 45 35 27 22
54 60 56 50 38 42 38 20 24 6 7 7 16 35 33 41 33 38 36 25 31 31 32 21 19 19 19 4 6 6 16 11 19 28 29 37 55 52 47 40 23 38 31 20
51 58 59 49 35 29 27 18 13 13 25 13 24 32 32 37 35 29 40 38 32 27 29 36 14 17 10 11 8 4 12 12 31 22 10 24 31 55 57 50 35 30 37 18
51 56 58 49 34 19 18 10 15 26 14 24 23 31 32 36 34 33 45 18 36 33 34 34 29 16 27 12 8 6 4 18 38 40 34 41 56 58 64 59 48 39 34 34
54 52 57 52 35 19 9 18 19 25 42 33 26 24 30 35 33 37 29 28 40 32 34 37 36 38 34 15 13 9 15 10 31 27 23 40 57 58 60 55 56 50 35 40
57 50 52 52 36 20 13 19 22 9 25 29 23 21 31 42 42 21 46 29 35 34 34 46 62 56 49 40 38 29 23 10 10 7 21 37 40 47 49 50 50 49 28 13
56 52 44 50 41 20 17 29 29 13 17 24 29 36 39 42 40 38 43 42 27 41 51 55 49 57 52 46 37 31 26 12 9 4 9 13 19 27 47 54 47 37 29 33
55 53 42 46 46 32 23 20 28 11 15 40 33 45 41 54 50 38 45 42 48 54 54 12 18 13 19 28 28 12 5 6 6 5 17 17 13 26 10 30 34 35 30 29
54 51 48 42 46 44 31 24 30 27 16 13 55 41 47 17 27 30 34 52 56 44 9 4 7 6 5 11 5 6 12 10 4 5 8 8 10 45 26 47 25 27 23 21
52 53 51 48 43 45 40 32 20 33 19 44 48 39 27 24 21 17 42 55 43 33 16 7 9 7 19 13 14 13 5 8 13 15 8 10 33 45 32 9 9 23 30 25
53 54 55 50 43 42 48 40 26 32 20 63 42 41 48 42 20 5 32 23 12 16 14 10 9 8 12 12 13 11 6 9 4 3 5 10 57 27 19 8 29 31 30 26
52 53 54 49 47 50 44 37 18 30 37 63 61 49 46 36 27 18 7 8 17 8 6 10 9 7 8 12 9 14 7 9 6 8 5 24 43 38 42 40 39 36 31 29
50 52 54 52 52 54 42 35 28 26 30 47 22 8 15 18 16 19 5 5 7 7 7 8 6 5 6 6 7 8 13 26 7 3 15 19 46 36 39 39 33 28 31 30
51 53 57 56 57 52 38 28 15 28 17 10 24 16 17 12 14 13 8 14 17 20 21 10 6 6 8 7 6 8 9 12 10 9 15 9 41 46 41 30 27 26 24 22
50 51 57 60 61 47 37 28 25 27 20 13 42 43 13 13 14 14 20 9 11 10 9 10 5 9 4 1 6 8 9 10 8 4 14 14 19 21 26 27 25 26 20 21
47 50 57 62 56 39 12 9 7 20 27 13 8 22 13 15 17 16 25 23 13 12 9 15 11 9 14 1 4 18 22 18 13 8 18 13 11 16 20 20 22 20 20 18
46 52 59 61 44 21 11 4 5 19 15 7 11 9 11 11 13 9 14 20 21 19 11 9 17 13 11 7 7 22 23 18 20 20 21 18 25 23 17 18 19 19 16 17
40 48 55 46 16 7 17 24 21 18 11 10 7 10 9 8 10 5 12 10 11 11 9 11 8 10 6 7 19 21 26 22 23 28 14 14 16 19 28 23 19 19 19 21
40 39 38 19 3 7 14 16 16 14 17 9 9 7 6 10 9 5 8 12 6 4 6 3 4 4 6 7 12 16 18 23 21 19 31 32 35 36 31 33 31 28 27 23
29 21 9 8 2 10 17 9 6 8 12 15 14 36 10 15 3 5 5 7 5 3 5 1 4 3 4 6 8 11 11 15 23 22 23 23 20 30 34 38 36 32 31 31
18 10 8 8 14 13 12 9 12 17 10 18 23 36 16 5 9 1 3 5 6 5 5 4 6 7 6 9 12 9 9 15 15 19 26 31 38 26 25 28 28 29 30 31
23 29 40 23 8 14 7 8 11 15 10 14 22 22 22 5 3 2 6 3 7 7 7 5 5 9 15 11 10 12 12 15 18 22 27 31 31 28 29 28 27 31 31 36
21 7 7 8 11 10 13 11 9 8 13 11 8 9 14 15 5 4 1 4 9 19 6 4 5 24 18 15 8 5 13 16 18 21 24 26 29 28 20 23 23 27 29 33
10 10 9 11 12 12 14 15 14 11 2 12 11 10 11 6 8 5 7 9 3 5 6 2 12 12 19 12 7 4 1 7 13 18 20 24 26 26 30 31 26 27 31 36
11 11 10 14 28 30 25 27 29 17 6 19 12 8 11 4 4 6 2 5 5 8 6 3 7 11 8 6 3 0 5 2 10 12 16 19 21 24 27 31 30 29 30 32
13 19 19 28 29 27 27 32 30 24 19 17 11 6 4 8 6 8 9 4 9 6 5 16 7 9 5 3 7 3 6 7 7 11 15 18 21 24 26 27 30 30 30 33
13 17 31 43 45 42 46 42 32 18 25 13 7 8 10 6 5 8 9 9 7 15 23 23 11 12 7 3 4 4 5 2 4 7 12 16 18 20 22 29 28 26 29 34
Wind_Direction_500mb
355 353 352 357 354 353 2 302 287 184 344 241 294 306 327 314 312 317 310 343 301 290 286 300 296 31 11 333 334 311 318 310 260 265 263 214 230 225 220 219 207 236 265 263
355 355 353 357 360 356 348 307 307 294 300 342 331 310 327 325 348 331 324 318 313 318 321 314 325 320 166 278 302 7 348 233 260 252 262 249 229 225 230 237 220 215 233 237
351 356 354 353 2 353 344 307 313 356 337 321 311 323 316 322 327 326 325 313 312 320 312 303 224 286 309 238 310 194 294 254 253 248 244 334 271 233 229 222 213 221 223 142
346 351 355 351 359 4 347 287 345 6 311 327 317 302 303 320 341 337 329 306 331 324 320 312 312 259 284 250 253 162 237 271 270 270 274 296 289 240 227 215 204 225 231 209
350 345 350 352 353 3 333 330 345 335 299 320 311 325 315 329 328 325 317 320 310 308 311 314 314 308 306 313 267 218 204 276 291 265 286 286 290 289 222 212 193 220 233 212
351 346 346 348 348 9 335 328 319 276 301 307 328 309 324 313 319 312 304 335 318 311 308 308 304 290 286 277 266 268 283 286 267 257 232 283 284 250 232 208 188 212 211 163
348 348 345 345 343 331 304 316 309 293 291 316 318 331 317 329 334 314 324 308 298 312 315 301 302 291 272 248 256 251 249 267 297 76 155 228 233 286 218 202 183 209 95 83
343 345 341 346 340 326 304 302 296 290 292 306 315 333 325 327 319 319 318 329 330 325 316 320 302 316 254 268 242 282 142 201 268 248 206 309 15 350 280 186 66 49 42 54
340 340 338 333 341 333 308 295 296 278 287 301 322 315 317 321 318 323 318 326 330 322 298 307 290 353 307 272 336 212 132 179 247 150 319 190 237 312 350 114 87 41 68 43
335 340 334 331 325 332 316 294 269 282 275 286 320 310 310 316 302 287 304 342 327 338 335 331 343 333 344 347 11 351 315 185 213 247 309 7 323 311 328 9 96 62 66 50
329 333 335 331 328 326 325 301 263 277 269 290 288 306 297 301 295 281 309 330 2 328 352 349 347 333 355 338 337 344 336 309 96 220 64 274 322 16 66 141 78 71 59 51
324 328 332 332 330 323 319 299 301 277 266 284 296 292 281 279 293 273 314 287 311 322 321 345 325 334 338 324 338 345 29 358 345 30 103 277 299 40 45 60 61 56 57 43
322 324 326 329 326 324 315 290 266 283 285 308 312 327 290 251 246 262 212 275 307 293 347 297 297 321 321 328 6 301 347 360 30 90 17 315 347 41 47 49 51 43 43 41
316 322 322 326 327 322 311 286 272 248 273 278 300 323 278 267 231 231 237 268 277 289 299 264 271 261 202 338 301 11 358 347 16 44 3 2 352 17 23 36 38 42 37 27
314 319 322 322 327 318 299 288 260 232 233 297 306 309 261 220 237 238 253 275 269 279 271 232 273 274 187 69 261 30 26 28 24 24 314 356 332 19 15 17 27 24 17 20
311 317 319 320 323 316 298 291 327 210 212 289 295 316 264 244 256 246 228 224 223 234 274 284 272 279 348 326 8 14 20 21 14 317 331 319 10 359 355 3 12 10 7 14
305 315 315 318 315 286 220 357 156 182 192 257 276 265 227 222 262 256 251 220 232 253 270 263 300 346 25 339 33 10 21 19 16 6 356 4 354 353 355 9 9 2 4 18
308 315 315 319 310 206 235 255 231 216 245 239 274 281 287 199 279 246 239 246 226 226 260 279 317 325 69 49 29 18 355 353 28 4 10 346 1 3 13 9 5 4 5 1
321 318 311 305 145 220 233 245 245 228 237 274 226 280 279 188 267 308 241 240 231 214 235 270 359 28 59 349 21 20 11 22 4 29 31 32 26 21 10 7 17 14 9 360
331 322 284 200 219 315 296 299 207 221 210 226 255 252 253 281 138 295 304 312 289 218 285 359 64 94 67 9 68 86 54 21 22 24 27 26 35 47 34 23 20 14 4 354
345 310 293 300 302 296 235 231 212 184 224 215 241 242 246 279 324 202 320 310 283 258 231 212 182 174 166 96 120 109 68 40 14 20 43 38 60 49 44 32 20 13 3 356
293 284 281 293 238 226 222 241 215 197 234 173 234 205 235 125 84 85 260 260 312 259 321 215 209 152 169 156 112 72 44 34 29 34 34 37 50 45 43 36 28 22 12 7
309 280 259 237 217 229 222 215 235 233 210 229 207 228 180 183 132 182 227 262 246 327 265 250 140 162 165 150 136 89 23 30 13 20 30 36 42 42 39 31 24 23 11 16
256 230 236 226 214 229 215 242 251 267 315 299 253 243 167 223 170 190 222 222 226 271 251 209 159 151 142 153 154 144 8 13 14 357 16 19 32 35 33 30 25 18 9 10
265 242 243 236 239 266 259 246 260 273 239 278 286 270 266 146 287 234 268 247 249 223 244 202 168 220 119 106 232 231 190 70 24 11 357 5 14 21 33 25 22 19 15 14
240 234 256 270 278 272 255 249 250 258 254 233 248 264 264 221 202 187 214 221 229 248 248 270 144 124 109 166 161 215 299 12 359 349 356 358 2 9 20 18 17 19 16 14
239 246 251 262 275 281 287 291 297 278 228 219 217 223 231 216 201 211 180 203 234 239 241 241 136 172 191 209 241 247 181 265 38 344 351 349 358 357 14 11 10 12 12 10
Wind_Speed_850mb
55 58 58 55 48 53 33 17 7 11 7 9 11 18 41 53 22 34 34 15 23 17 33 39 36 19 21 27 30 21 22 10 28 50 48 58 58 50 48 31 45 35 27 22
54 60 56 50 38 42 38 20 24 6 7 7 16 35 33 41 33 38 36 25 31 31 32 21 19 19 19 4 6 6 16 11 19 28 29 37 55 52 47 40 23 38 31 20
51 58 59 49 35 29 27 18 13 13 25 13 24 32 32 37 35 29 40 38 32 27 29 36 14 17 10 11 8 4 12 12 31 22 10 24 31 55 57 50 35 30 37 18
51 56 58 49 34 19 18 10 15 26 14 24 23 31 32 36 34 33 45 18 36 33 34 34 29 16 27 12 8 6 4 18 38 40 34 41 56 58 64 59 48 39 34 34
54 52 57 52 35 19 9 18 19 25 42 33 26 24 30 35 33 37 29 28 40 32 34 37 36 38 34 15 13 9 15 10 31 27 23 40 57 58 60 55 56 50 35 40
57 50 52 52 36 20 13 19 22 9 25 29 23 21 31 42 42 21 46 29 35 34 34 46 62 56 49 40 38 29 23 10 10 7 21 37 40 47 49 50 50 49 28 13
56 52 44 50 41 20 17 29 29 13 17 24 29 36 39 42 40 38 43 42 27 41 51 55 49 57 52 46 37 31 26 12 9 4 9 13 19 27 47 54 47 37 29 33
55 53 42 46 46 32 23 20 28 11 15 40 33 45 41 54 50 38 45 42 48 54 54 12 18 13 19 28 28 12 5 6 6 5 17 17 13 26 10 30 34 35 30 29
54 51 48 42 46 44 31 24 30 27 16 13 55 41 47 17 27 30 34 52 56 44 9 4 7 6 5 11 5 6 12 10 4 5 8 8 10 45 26 47 25 27 23 21
52 53 51 48 43 45 40 32 20 33 19 44 48 39 27 24 21 17 42 55 43 33 16 7 9 7 19 13 14 13 5 8 13 15 8 10 33 45 32 9 9 23 30 25
53 54 55 50 43 42 48 40 26 32 20 63 42 41 48 42 20 5 32 23 12 16 14 10 9 8 12 12 13 11 6 9 4 3 5 10 57 27 19 8 29 31 30 26
52 53 54 49 47 50 44 37 18 30 37 63 61 49 46 36 27 18 7 8 17 8 6 10 9 7 8 12 9 14 7 9 6 8 5 24 43 38 42 40 39 36 31 29
50 52 54 52 52 54 42 35 28 26 30 47 22 8 15 18 16 19 5 5 7 7 7 8 6 5 6 6 7 8 13 26 7 3 15 19 46 36 39 39 33 28 31 30
51 53 57 56 57 52 38 28 15 28 17 10 24 16 17 12 14 13 8 14 17 20 21 10 6 6 8 7 6 8 9 12 10 9 15 9 41 46 41 30 27 26 24 22
50 51 57 60 61 47 37 28 25 27 20 13 42 43 13 13 14 14 20 9 11 10 9 10 5 9 4 1 6 8 9 10 8 4 14 14 19 21 26 27 25 26 20 21
47 50 57 62 56 39 12 9 7 20 27 13 8 22 13 15 17 16 25 23 13 12 9 15 11 9 14 1 4 18 22 18 13 8 18 13 11 16 20 20 22 20 20 18
46 52 59 61 44 21 11 4 5 19 15 7 11 9 11 11 13 9 14 20 21 19 11 9 17 13 11 7 7 22 23 18 20 20 21 18 25 23 17 18 19 19 16 17
40 48 55 46 16 7 17 24 21 18 11 10 7 10 9 8 10 5 12 10 11 11 9 11 8 10 6 7 19 21 26 22 23 28 14 14 16 19 28 23 19 19 19 21
40 39 38 19 3 7 14 16 16 14 17 9 9 7 6 10 9 5 8 12 6 4 6 3 4 4 6 7 12 16 18 23 21 19 31 32 35 36 31 33 31 28 27 23
29 21 9 8 2 10 17 9 6 8 12 15 14 36 10 15 3 5 5 7 5 3 5 1 4 3 4 6 8 11 11 15 23 22 23 23 20 30 34 38 36 32 31 31
18 10 8 8 14 13 12 9 12 17 10 18 23 36 16 5 9 1 3 5 6 5 5 4 6 7 6 9 12 9 9 15 15 19 26 31 38 26 25 28 28 29 30 31
23 29 40 23 8 14 7 8 11 15 10 14 22 22 22 5 3 2 6 3 7 7 7 5 5 9 15 11 10 12 12 15 18 22 27 31 31 28 29 28 27 31 31 36
21 7 7 8 11 10 13 11 9 8 13 11 8 9 14 15 5 4 1 4 9 19 6 4 5 24 18 15 8 5 13 16 18 21 24 26 29 28 20 23 23 27 29 33
10 10 9 11 12 12 14 15 14 11 2 12 11 10 11 6 8 5 7 9 3 5 6 2 12 12 19 12 7 4 1 7 13 18 20 24 26 26 30 31 26 27 31 36
11 11 10 14 28 30 25 27 29 17 6 19 12 8 11 4 4 6 2 5 5 8 6 3 7 11 8 6 3 0 5 2 10 12 16 19 21 24 27 31 30 29 30 32
13 19 19 28 29 27 27 32 30 24 19 17 11 6 4 8 6 8 9 4 9 6 5 16 7 9 5 3 7 3 6 7 7 11 15 18 21 24 26 27 30 30 30 33
13 17 31 43 45 42 46 42 32 18 25 13 7 8 10 6 5 8 9 9 7 15 23 23 11 12 7 3 4 4 5 2 4 7 12 16 18 20 22 29 28 26 29 34
Wind_Direction_850mb
355 353 352 357 354 353 2 302 287 184 344 241 294 306 327 314 312 317 310 343 301 290 286 300 296 31 11 333 334 311 318 310 260 265 263 214 230 225 220 219 207 236 265 263
355 355 353 357 360 356 348 307 307 294 300 342 331 310 327 325 348 331 324 318 313 318 321 314 325 320 166 278 302 7 348 233 260 252 262 249 229 225 230 237 220 215 233 237
351 356 354 353 2 353 344 307 313 356 337 321 311 323 316 322 327 326 325 313 312 320 312 303 224 286 309 238 310 194 294 254 253 248 244 334 271 233 229 222 213 221 223 142
346 351 355 351 359 4 347 287 345 6 311 327 317 302 303 320 341 337 329 306 331 324 320 312 312 259 284 250 253 162 237 271 270 270 274 296 289 240 227 215 204 225 231 209
350 345 350 352 353 3 333 330 345 335 299 320 311 325 315 329 328 325 317 320 310 308 311 314 314 308 306 313 267 218 204 276 291 265 286 286 290 289 222 212 193 220 233 212
351 346 346 348 348 9 335 328 319 276 301 307 328 309 324 313 319 312 304 335 318 311 308 308 304 290 286 277 266 268 283 286 267 257 232 283 284 250 232 208 188 212 211 163
348 348 345 345 343 331 304 316 309 293 291 316 318 331 317 329 334 314 324 308 298 312 315 301 302 291 272 248 256 251 249 267 297 76 155 228 233 286 218 202 183 209 95 83
343 345 341 346 340 326 304 302 296 290 292 306 315 333 325 327 319 319 318 329 330 325 316 320 302 316 254 268 242 282 142 201 268 248 206 309 15 350 280 186 66 49 42 54
340 340 338 333 341 333 308 295 296 278 287 301 322 315 317 321 318 323 318 326 330 322 298 307 290 353 307 272 336 212 132 179 247 150 319 190 237 312 350 114 87 41 68 43
335 340 334 331 325 332 316 294 269 282 275 286 320 310 310 316 302 287 304 342 327 338 335 331 343 333 344 347 11 351 315 185 213 247 309 7 323 311 328 9 96 62 66 50
329 333 335 331 328 326 325 301 263 277 269 290 288 306 297 301 295 281 309 330 2 328 352 349 347 333 355 338 337 344 336 309 96 220 64 274 322 16 66 141 78 71 59 51
324 328 332 332 330 323 319 299 301 277 266 284 296 292 281 279 293 273 314 287 311 322 321 345 325 334 338 324 338 345 29 358 345 30 103 277 299 40 45 60 61 56 57 43
322 324 326 329 326 324 315 290 266 283 285 308 312 327 290 251 246 262 212 275 307 293 347 297 297 321 321 328 6 301 347 360 30 90 17 315 347 41 47 49 51 43 43 41
316 322 322 326 327 322 311 286 272 248 273 278 300 323 278 267 231 231 237 268 277 289 299 264 271 261 202 338 301 11 358 347 16 44 3 2 352 17 23 36 38 42 37 27
314 319 322 322 327 318 299 288 260 232 233 297 306 309 261 220 237 238 253 275 269 279 271 232 273 274 187 69 261 30 26 28 24 24 314 356 332 19 15 17 27 24 17 20
311 317 319 320 323 316 298 291 327 210 212 289 295 316 264 244 256 246 228 224 223 234 274 284 272 279 348 326 8 14 20 21 14 317 331 319 10 359 355 3 12 10 7 14
305 315 315 318 315 286 220 357 156 182 192 257 276 265 227 222 262 256 251 220 232 253 270 263 300 346 25 339 33 10 21 19 16 6 356 4 354 353 355 9 9 2 4 18
308 315 315 319 310 206 235 255 231 216 245 239 274 281 287 199 279 246 239 246 226 226 260 279 317 325 69 49 29 18 355 353 28 4 10 346 1 3 13 9 5 4 5 1
321 318 311 305 145 220 233 245 245 228 237 274 226 280 279 188 267 308 241 240 231 214 235 270 359 28 59 349 21 20 11 22 4 29 31 32 26 21 10 7 17 14 9 360
331 322 284 200 219 315 296 299 207 221 210 226 255 252 253 281 138 295 304 312 289 218 285 359 64 94 67 9 68 86 54 21 22 24 27 26 35 47 34 23 20 14 4 354
345 310 293 300 302 296 235 231 212 184 224 215 241 242 246 279 324 202 320 310 283 258 231 212 182 174 166 96 120 109 68 40 14 20 43 38 60 49 44 32 20 13 3 356
293 284 281 293 238 226 222 241 215 197 234 173 234 205 235 125 84 85 260 260 312 259 321 215 209 152 169 156 112 72 44 34 29 34 34 37 50 45 43 36 28 22 12 7
309 280 259 237 217 229 222 215 235 233 210 229 207 228 180 183 132 182 227 262 246 327 265 250 140 162 165 150 136 89 23 30 13 20 30 36 42 42 39 31 24 23 11 16
256 230 236 226 214 229 215 242 251 267 315 299 253 243 167 223 170 190 222 222 226 271 251 209 159 151 142 153 154 144 8 13 14 357 16 19 32 35 33 30 25 18 9 10
265 242 243 236 239 266 259 246 260 273 239 278 286 270 266 146 287 234 268 247 249 223 244 202 168 220 119 106 232 231 190 70 24 11 357 5 14 21 33 25 22 19 15 14
240 234 256 270 278 272 255 249 250 258 254 233 248 264 264 221 202 187 214 221 229 248 248 270 144 124 109 166 161 215 299 12 359 349 356 358 2 9 20 18 17 19 16 14
239 246 251 262 275 281 287 291 297 278 228 219 217 223 231 216 201 211 180 203 234 239 241 241 136 172 191 209 241 247 181 265 38 344 351 349 358 357 14 11 10 12 12 10